This is the latest recevied weather packets stored in our database for station/object KD4UFD. If no packets are shown the sender has not sent any weather packets the latest 10 day(s).
| Time | Temp. | Humidity | Pressure | Rain* | Wind** | Luminosity | Snow |
|---|---|---|---|---|---|---|---|
| 1777734459 | 14.44° C | 54% | 1015.8 hPa | 0 mm | - | 695 W/m² | - |
| 1777734156 | 14.44° C | 54% | 1015.7 hPa | 0 mm | - | 853 W/m² | - |
| 1777733852 | 14.44° C | 55% | 1015.9 hPa | 0 mm | - | 578 W/m² | - |
| 1777733549 | 14.44° C | 51% | 1015.8 hPa | 0 mm | - | 715 W/m² | - |
| 1777733245 | 13.89° C | 54% | 1015.8 hPa | 0 mm | - | 846 W/m² | - |
| 1777732942 | 13.89° C | 51% | 1015.8 hPa | 0 mm | - | 732 W/m² | - |
| 1777732638 | 13.89° C | 53% | 1015.7 hPa | 0 mm | - | 708 W/m² | - |
| 1777732336 | 13.89° C | 53% | 1016 hPa | 0 mm | - | 697 W/m² | - |
| 1777732034 | 13.89° C | 50% | 1015.7 hPa | 0 mm | - | 691 W/m² | - |
| 1777731730 | 13.89° C | 51% | 1015.6 hPa | 0 mm | - | 628 W/m² | - |
| 1777731427 | 13.33° C | 53% | 1015.8 hPa | 0 mm | - | 501 W/m² | - |
| 1777731125 | 13.89° C | 51% | 1015.8 hPa | 0 mm | - | 586 W/m² | - |
| 1777730520 | 13.33° C | 55% | 1015.8 hPa | 0 mm | - | 571 W/m² | - |
| 1777730215 | 12.78° C | 56% | 1015.7 hPa | 0 mm | - | 539 W/m² | - |
| 1777729913 | 13.33° C | 56% | 1015.6 hPa | 0 mm | - | 530 W/m² | - |
| 1777729609 | 13.33° C | 57% | 1015.8 hPa | 0 mm | - | 525 W/m² | - |
| 1777729306 | 12.22° C | 57% | 1015.8 hPa | 0 mm | - | 405 W/m² | - |
| 1777729002 | 12.22° C | 58% | 1015.6 hPa | 0 mm | - | 298 W/m² | - |
| 1777728699 | 12.78° C | 57% | 1015.5 hPa | 0 mm | - | 312 W/m² | - |
| 1777728396 | 12.22° C | 60% | 1015.7 hPa | 0 mm | - | 301 W/m² | - |
| 1777728093 | 12.22° C | 60% | 1015.7 hPa | 0 mm | - | 277 W/m² | - |
| 1777727790 | 12.22° C | 62% | 1015.7 hPa | 0 mm | - | 308 W/m² | - |
| 1777727487 | 11.67° C | 60% | 1015.7 hPa | 0 mm | - | 289 W/m² | - |
| 1777727185 | 12.22° C | 62% | 1015.4 hPa | 0 mm | - | 265 W/m² | - |
| 1777726882 | 12.22° C | 66% | 1015.8 hPa | 0 mm | - | 265 W/m² | - |
* Rain latest hour (hover to see other rain measurements)
** Current wind speed in m/s (hover to see current wind gust speed)